AMSC 1 1 23553C 95019A 22220.25000000 .00000016 00000+0 00000+0 0 2209 2 23553 11.9922 25.8620 0005375 98.6848 174.6887 1.00271725 17 ANIK F1 1 26624C 00076A 22220.00000000 .00000028 00000+0 00000+0 0 2206 2 26624 1.5609 92.0364 0011103 27.1567 88.0944 1.00270758 15 NIMIQ 2 1 27632C 02062A 22220.25000000 .00000028 00000+0 00000+0 0 2200 2 27632 6.1219 70.1408 0006910 87.8389 139.5452 1.00271009 10 ANIK F2 1 28378C 04027A 22217.50000000 .00000041 00000+0 00000+0 0 2176 2 28378 0.0502 111.0267 0002237 37.8557 234.0423 1.00271132 10 XTAR-EUR 1 28542C 05005A 22220.25000000 .00000241 00000+0 00000+0 0 2208 2 28542 0.7038 94.1327 0003246 38.9646 302.6250 1.00270597 18 ANIK F1R 1 28868C 05036A 22220.20833333 .00000016 00000+0 00000+0 0 2201 2 28868 0.6858 93.2953 0003094 28.1962 162.8915 1.00271104 15 ANIK F3 1 31102C 07009A 22220.20833333 .00000089 00000+0 00000+0 0 2208 2 31102 0.0117 90.7105 0002281 30.6397 151.6149 1.00270156 11 NIMIQ 4 1 33373C 08044A 22220.20833333 -.00000130 00000+0 00000+0 0 2208 2 33373 0.0135 90.3992 0002468 37.2421 182.0465 1.00269771 11 TELSTAR 11N 1 34111C 09009A 22220.20833333 -.00000217 00000+0 00000+0 0 2207 2 34111 0.0001 26.9682 0001708 92.3625 234.8155 1.00272358 16 TERRESTAR-1 1 35496C 09035A 22220.25000000 .00000040 00000+0 00000+0 0 2208 2 35496 3.2683 39.5653 0003095 96.3103 159.8582 1.00268529 13 NIMIQ 5 1 35873C 09050A 22220.25000000 -.00000199 00000+0 00000+0 0 2200 2 35873 0.0315 254.3778 0003262 257.1255 182.5216 1.00271638 17 SKYTERRA 1 1 37218C 10061A 22220.25000000 -.00000023 00000+0 00000+0 0 2205 2 37218 2.5029 34.2329 0001322 122.3705 148.8468 1.00271747 11 TELSTAR 14R 1 37602C 11021A 22220.08333333 -.00003810 00000+0 00000+0 0 2205 2 37602 0.0380 300.6930 0002420 146.6075 196.2633 1.00270798 14 NIMIQ 6 1 38342C 12026A 22220.25000000 -.00000086 00000+0 00000+0 0 2206 2 38342 0.0557 271.5176 0002939 225.3940 178.7082 1.00270143 18 ANIK G1 1 39127C 13014A 22220.20833333 .00000043 00000+0 00000+0 0 2206 2 39127 0.0004 145.6060 0001254 12.6053 126.1866 1.00268454 10 TELSTAR 12V 1 41036C 15068A 22220.25000000 -.00000029 00000+0 00000+0 0 2206 2 41036 0.0125 90.3313 0002490 39.9943 261.3949 1.00271294 16 VIASAT-2 1 42740C 17029A 22219.33333333 -.00000187 00000+0 00000+0 0 2196 2 42740 0.0219 314.0468 0000481 142.1326 269.7323 1.00269818 17 TELSTAR 19V 1 43562C 18059A 22213.20833333 -.00000190 00000+0 00000+0 0 2136 2 43562 0.0092 124.4004 0003296 14.4336 182.9599 1.00272279 13 TELSTAR 18V (APSTAR 5C) 1 43611C 18069A 22220.20833333 -.00000204 00000+0 00000+0 0 2204 2 43611 0.0001 59.5053 0002424 74.8789 35.3153 1.00272328 16 AMOS-17 1 44479C 19050A 22220.20833333 .00000181 00000+0 00000+0 0 2201 2 44479 0.0000 64.4998 0002435 74.1233 270.0752 1.00269137 17